User: anonymous   Login
Location: Six Mile Lake
(44.9000°N, 79.7170°W)
Time: 11:57:31
(UTC-05:00)
Language:

deb Delta 132 - Orbit

View from above orbital plane
View from above orbital plane
View from above satellite
View from above satellite

Ground track
Ground track

The orbit data is extracted from the following two-line orbital elements,

1 10306U 77065DC  22333.37999242  .00000740  00000-0  17406-3 0  9995
2 10306  29.1051  37.5125 0696850  59.8926 306.8873 13.57500856214110
Epoch (UTC): 29 November 2022 09:07:11
Eccentricity: 0.0696850
inclination: 29.1051°
perigee height: 527 km
apogee height: 1562 km
right ascension of ascending node: 37.5125°
argument of perigee: 59.8926°
revolutions per day: 13.57500856
mean anomaly at epoch: 306.8873°
orbit number at epoch: 21411

The dashed part of the orbit path shows where the satellite is in the earth's shadow,  

DLR